Back to catalog

CZ-4B DEB

AliveSSO
NORAD 35404·DEBRIS·🇨🇳 China

Launched May 15, 2002 from Taiyuan Satellite Launch Center

Loading…

Next Passes (next 24 hours)

TLE

FreshSource: Space-Track

Epoch: Sep 14, 2026, 09:18 UTC

1 35404U 02024J   26257.38816154  .00000018  00000-0  29105-4 0  9992
2 35404  98.8060 304.6892 0051378 308.4804 116.3941 14.20018960254582

Track CZ-4B DEB in real time with AllMySat

Download on the App Store